Marina di Ginosa, Italy

7:32 PM CEST on May 23, 2018 (GMT +0200)
Marina di Ginosa

Weather History for LIBH - June, 2013

Change the Weather History Date:

Monday, June 24, 2013

  Actual Average (LIBV) Record (LIBV)
Temperature  
Mean Temperature 80 °F -  
Max Temperature 91 °F 83 °F 96 °F (2007)
Min Temperature 69 °F 62 °F 55 °F (1999)
Cooling Degree Days 15    
Growing Degree Days 30 (Base 50)    
Moisture  
Dew Point 56 °F    
Average Humidity 43    
Maximum Humidity 66    
Minimum Humidity 20    
Precipitation  
Precipitation 0.00 in 0.02 in - ()
Sea Level Pressure  
Sea Level Pressure 29.83 in    
Wind  
Wind Speed 7 mph ()    
Max Wind Speed 21 mph    
Max Gust Speed -    
Visibility 10.1 miles    
Events      
Averages and records for this station are not official NWS values.
T = Trace of Precipitation, MM = Missing Value Source: Averaged Metar Reports

Daily Weather History Graph

Daily Weather History Graph

Search for Another Location

Airport or City:

Astronomy

Jun. 24, 2013 Rise Set
Actual Time 5:23 AM CEST 8:26 PM CEST
Civil Twilight 4:49 AM CEST 8:59 PM CEST
Nautical Twilight 4:07 AM CEST 9:42 PM CEST
Astronomical Twilight 3:18 AM CEST 10:31 PM CEST
Moon 9:14 PM CEST (6/24) 6:29 AM CEST (6/24)
Length of Visible Light 16h 09m
Length of Day
15h 03m
Full, 99% of the Moon is Illuminated
Jun 24
Full
Jun 30
Last Quarter
Jul 8
New
Jul 16
First Quarter
Jul 22
Full

Hourly Weather History & Observations

Time (CEST) Temp. Heat Index Dew Point Humidity Pressure Visibility Wind Dir Wind Speed Gust Speed Precip Events Conditions
12:55 AM 78.8 °F - 59.0 °F 51% 29.86 in - Calm Calm - N/A   Clear
1:55 AM 77.0 °F - 59.0 °F 54% 29.86 in - Calm Calm - N/A   Clear
2:00 AM 77 °F - 60 °F 45% 29.87 in 12 mi Calm Calm - -  
2:55 AM 75.2 °F - 59.0 °F 57% 29.86 in - Calm Calm - N/A   Clear
3:55 AM 73.4 °F - 57.2 °F 57% 29.86 in - Calm Calm - N/A   Clear
4:55 AM 73.4 °F - 57.2 °F 57% 29.86 in - Calm Calm - N/A   Clear
5:55 AM 71.6 °F - 57.2 °F 60% 29.86 in - WNW 5.8 mph - N/A   Clear
6:55 AM 69.8 °F - 57.2 °F 64% 29.86 in - West 8.1 mph - N/A   Clear
7:55 AM 75.2 °F - 59.0 °F 57% 29.86 in - WNW 8.1 mph - N/A   Clear
8:00 AM 75 °F - 59 °F 48% 29.87 in 12 mi WNW 8.1 mph - -  
8:55 AM 78.8 °F - 57.2 °F 47% 29.86 in - West 6.9 mph - N/A   Clear
9:55 AM 84.2 °F 83.0 °F 55.4 °F 37% 29.86 in - West 9.2 mph - N/A   Clear
10:55 AM 86.0 °F 84.2 °F 53.6 °F 33% 29.83 in - West 8.1 mph - N/A   Clear
11:55 AM 82.4 °F 86.3 °F 69.8 °F 66% 29.83 in - South 12.7 mph - N/A   Clear
12:55 PM 84.2 °F 85.6 °F 64.4 °F 51% 29.83 in - South 13.8 mph - N/A   Clear
1:55 PM 91.4 °F 89.4 °F 55.4 °F 29% 29.80 in - SSW 13.8 mph - N/A   Clear
2:00 PM 91 °F - 55 °F 20% 29.81 in 12 mi SSW 13.8 mph - -  
2:55 PM 91.4 °F 89.4 °F 55.4 °F 29% 29.77 in 6.2 mi SSW 17.3 mph - N/A   Partly Cloudy
3:55 PM 91.4 °F 89.1 °F 53.6 °F 28% 29.77 in 6.2 mi South 18.4 mph - N/A   Partly Cloudy
4:55 PM 91.4 °F 89.1 °F 53.6 °F 28% 29.77 in - WSW 20.7 mph - N/A   Clear
5:55 PM 89.6 °F 87.3 °F 53.6 °F 29% 29.77 in - West 18.4 mph - N/A   Clear
6:55 PM 86.0 °F - 51.8 °F 31% 29.77 in - West 20.7 mph - N/A   Clear
7:55 PM 82.4 °F 81.4 °F 53.6 °F 37% 29.77 in - West 17.3 mph - N/A   Clear
8:00 PM 83 °F - 54 °F 27% 29.80 in 12 mi West 17.3 mph - -  
8:55 PM 80.6 °F 80.5 °F 55.4 °F 42% 29.80 in - West 13.8 mph - N/A   Clear
9:55 PM 77.0 °F - 55.4 °F 47% 29.83 in - West 11.5 mph - N/A   Clear
10:55 PM 75.2 °F - 48.2 °F 38% 29.86 in - West 16.1 mph - N/A   Clear
11:55 PM 73.4 °F - 46.4 °F 38% 29.86 in - West 17.3 mph - N/A   Clear